Weather in Sosnovka

Russia / Arkhangel'skaya Oblast'     63°25′05″N   46°08′40″E
temp.,
°C
wind,
m/s
gust,
m/s
humid.,
%
clouds,
%
prec.,
mm/h
press.,
hPa
HPBL,
m
28 february, sun
sun2800:00−16ssw269799 0.4 1011189
03:00−16ssw259790 0.5 1011170
06:00−16sw129796 0.2 101132
09:00−13ssw119698 0.3 101253
12:00−8wnw1290100 0.1 1012312
15:00−6w1392100 0.1 1013349
18:00−6wsw139699 0.1 101365
21:00−7wsw3796100 0.2 1014265
1 march, mon
mon100:00−8sw379799 0.1 1013212
03:00−8ssw4996100 0.1 1011303
06:00−7ssw51295100 0.3 1008447
09:00−5sw51195100 0.9 1004542
12:00−4sw61295100 2.3 1000634
15:00−1sw51197100 4.1 998624
18:000w4998100 1.3 995497
21:000wnw51096100 2.8 994807
2 march, tue
tue200:00−2wnw4119457 0.0 993593
03:00−2w3109669 0.2 993523
06:00−3w4109697 0.5 992551
09:00−3wnw489299 0.6 992635
12:00−2w368999 0.1 991709
15:00−1w249399 0.3 992415
18:00−3nw1398100 0.6 99491
21:00−5n61392100 1.5 997887
3 march, wed
wed300:00−8nnw4128999 0.1 1000477
03:00−11nw4109681 0.1 1002318
06:00−10wnw4109499 0.1 1002430
09:00−10wnw499499 0.2 1003431
12:00−8wnw4893100 0.1 1002457
15:00−7wnw4991100 0.3 1002689
18:00−9w31094100 0.1 1001475
21:00−11wsw2597100 0.2 1000106
4 march, thu
thu400:00−13ssw239769 0.0 99753
03:00−12sse399681 0.1 993216
06:00−9sse41295100 0.6 989452
09:00−8se4994100 2.0 984514
12:00−7ese4893100 0.4 982561
15:00−6e3793100 0.9 982638
18:00−8ne3795100 0.5 984355
21:00−9nne2695100 0.7 987233